Overview Statistics Trail Chart Weather Telemetry Raw packets
 

This is the latest recevied weather packets stored in our database for station/object AA6HF. If no packets are shown the sender has not sent any weather packets the latest 10 day(s).

<< 79 80 81 82 83 84 85 >>
Time Temp. Humidity Pressure Rain* Wind** Luminosity Snow
1788107310 37.78° C 22% 1007.7 hPa 0 mm - - -
1788107010 37.78° C 22% 1007.8 hPa 0 mm - - -
1788106710 37.22° C 22% 1007.8 hPa 0 mm - - -
1788106410 37.22° C 23% 1007.7 hPa 0 mm - - -
1788106110 36.67° C 23% 1007.7 hPa 0 mm - - -
1788105811 36.67° C 24% 1007.7 hPa 0 mm - - -
1788105510 37.22° C 24% 1007.8 hPa 0 mm - - -
1788105211 36.67° C 25% 1007.8 hPa 0 mm - - -
1788104910 36.11° C 25% 1007.8 hPa 0 mm - - -
1788104611 35° C 27% 1007.9 hPa 0 mm - - -
1788104310 35° C 26% 1008 hPa 0 mm - - -
1788104011 35° C 26% 1008 hPa 0 mm - - -
1788103711 34.44° C 28% 1007.9 hPa 0 mm - - -
1788103411 34.44° C 28% 1007.9 hPa 0 mm - - -
1788103111 33.89° C 29% 1007.9 hPa 0 mm - - -
1788102811 33.89° C 30% 1008 hPa 0 mm - - -
1788102511 33.33° C 31% 1008 hPa 0 mm - - -
1788102211 32.78° C 32% 1008 hPa 0 mm - - -
1788101911 31.67° C 33% 1008 hPa 0 mm - - -
1788101623 31.11° C 36% 1008 hPa 0 mm - - -
1788101311 30.56° C 37% 1007.9 hPa 0 mm - - -
1788101011 29.44° C 42% 1007.9 hPa 0 mm - - -
1788100711 28.89° C 43% 1007.9 hPa 0 mm - - -
1788100411 28.33° C 44% 1007.7 hPa 0 mm - - -
1788100111 27.78° C 46% 1007.7 hPa 0 mm - - -

* Rain latest hour (hover to see other rain measurements)
** Current wind speed in m/s (hover to see current wind gust speed)